[ hide orbit diagram ]
For accurate long-term ephemerides, please instead use our Horizons system.This orbit viewer was implemented using two-body methods, and hence should not be used for determining accurate long-term trajectories (over several years or decades) or planetary encounter circumstances.
Orbital Elements at Epoch 2459200.5 (2020-Dec-17.0) TDB
Reference: JPL 15 (heliocentric ecliptic J2000)
Element | Value | Uncertainty (1-sigma) | Units |
e | .07157760834228921 | 6.0101e-08 | |
a | 2.671450118436911 | 2.7228e-08 | au |
q | 2.480234108153471 | 1.5915e-07 | au |
i | 5.56020730727971 | 8.3884e-06 | deg |
node | 215.6536211295274 | 6.1711e-05 | deg |
peri | 126.9202731554849 | 9.5405e-05 | deg |
M | 129.5503551031557 | 6.8523e-05 | deg |
tp | 2458626.575006525063 (2019-May-23.07500653) | 0.00030201 | TDB |
period | 1594.847019033329 4.37 | 2.4383e-05 6.676e-08 | d yr |
n | .2257269792673931 | 3.451e-09 | deg/d |
Q | 2.86266612872035 | 2.9177e-08 | au |
|
| | Orbit Determination Parameters
Additional Information
|
[ hide covariance matrix ]
Orbital Elements at Epoch 2458022.5 (2017-Sep-26.0) TDB
Reference: JPL 15 (heliocentric ecliptic J2000)
Element | Value | Uncertainty (1-sigma) | Units |
e | .07207267981347994 | 6.0102e-08 | |
q | 2.479782244933632 | 1.5927e-07 | au |
tp | 2458621.938591061208 (2019-May-18.43859106) | 0.00029962 | TDB |
node | 215.6680275700583 | 6.1675e-05 | deg |
peri | 125.8107875714065 | 9.4892e-05 | deg |
i | 5.560553911259005 | 8.391e-06 | deg |
|
| | Orbit Determination Parameters
Additional Information
|
Orbit Covariance (6×6)
|
|
e |
q |
tp |
node |
peri |
i |
e |
3.612235581360117E-15 |
-9.451476867753473E-15 |
3.138590690807032E-12 |
-1.052471033455471E-14 |
6.557720947669733E-13 |
-1.869400627272664E-15 |
q |
-9.451476867753473E-15 |
2.536749981140154E-14 |
-6.827187760918385E-12 |
2.202411543034414E-14 |
-1.434284378774576E-12 |
5.578499709838528E-15 |
tp |
3.138590690807032E-12 |
-6.827187760918385E-12 |
8.97712213510149E-8 |
-1.345860814518747E-10 |
2.161786784514885E-8 |
1.789932766001996E-11 |
node |
-1.052471033455471E-14 |
2.202411543034414E-14 |
-1.345860814518747E-10 |
3.803813822776461E-9 |
-3.817350219587108E-9 |
4.232424658816251E-11 |
peri |
6.557720947669733E-13 |
-1.434284378774576E-12 |
2.161786784514885E-8 |
-3.817350219587108E-9 |
9.004403479080847E-9 |
-3.77629077366188E-11 |
i |
-1.869400627272664E-15 |
5.578499709838528E-15 |
1.789932766001996E-11 |
4.232424658816251E-11 |
-3.77629077366188E-11 |
7.040873650501875E-11 |
|
Physical Parameter Table
Parameter |
Symbol |
Value |
Units |
Sigma |
Reference |
Notes |
absolute magnitude |
H |
17.5 |
|
n/a |
MPO456158 |
|
|
452903 (2006 UE259) Discovered 2006-Sep-25 by Spacewatch at Kitt Peak |
Reference: | Last Updated: 2016-01-04 |
|
|